Change the Weather History Date:

Friday, August 23, 2013

  Actual Average (KWAL) Record (KWAL)
Temperature  
Mean Temperature 78 °F 75 °F  
Max Temperature 86 °F 83 °F 99 °F (1968)
Min Temperature 69 °F 67 °F 55 °F (1994)
Degree Days  
Heating Degree Days 0    
Month to date heating degree days  
Since 1 June heating degree days  
Since 1 July heating degree days  
Cooling Degree Days 12    
Month to date cooling degree days  
Year to date cooling degree days  
Since 1 June cooling degree days  
Growing Degree Days 28 (Base 50)    
Moisture  
Dew Point 70 °F    
Average Humidity 82    
Maximum Humidity 94    
Minimum Humidity 58    
Precipitation  
Precipitation 0.05 in 0.13 in 1.05 in (2005)
Month to date precipitation 3.24  
Year to date precipitation 26.44  
Sea Level Pressure  
Sea Level Pressure 29.99 in    
Wind  
Wind Speed 4 mph (NNE)    
Max Wind Speed 14 mph    
Max Gust Speed 21 mph    
Visibility 8 miles    
Events Fog , Rain    
T = Trace of Precipitation, MM = Missing Value Source: NWS Daily Summary

Daily Weather History Graph

Daily Weather History Graph

Search for Another Location

Airport or City:

Trip Planner

Search our weather history database for the weather conditions in past years. The results will help you decide how hot, cold, wet, or windy it might be!

Date:

Astronomy

Aug. 23, 2013 Rise Set
Actual Time 6:25 AM EDT 7:44 PM EDT
Civil Twilight 5:58 AM EDT 8:11 PM EDT
Nautical Twilight 5:25 AM EDT 8:44 PM EDT
Astronomical Twilight 4:51 AM EDT 9:18 PM EDT
Moon 9:07 PM EDT (8/23) 9:14 AM EDT (8/23)
Length of Visible Light 14h 13m
Length of Day
13h 18m
Waning Gibbous, 91% of the Moon is Illuminated
Aug 23
Waning Gibbous
Aug 28
Last Quarter
Sep 5
New
Sep 12
First Quarter
Sep 19
Full

Hourly Weather History & Observations

Time (EDT) Temp. Heat Index Dew Point Humidity Pressure Visibility Wind Dir Wind Speed Gust Speed Precip Events Conditions
12:16 AM 75.2 °F - 73.4 °F 94% 29.97 in 7.0 mi SW 3.5 mph - N/A   Clear
12:35 AM 75.2 °F - 73.4 °F 94% 29.97 in 7.0 mi WSW 4.6 mph - N/A   Clear
12:56 AM 75.2 °F - 73.4 °F 94% 29.97 in 10.0 mi WSW 4.6 mph - N/A   Clear
1:16 AM 75.2 °F - 73.4 °F 94% 29.96 in 7.0 mi WSW 4.6 mph - N/A   Clear
1:36 AM 75.2 °F - 73.4 °F 94% 29.96 in 1.2 mi West 3.5 mph - N/A   Mist
1:56 AM 73.4 °F - 71.6 °F 94% 29.96 in 0.8 mi West 3.5 mph - N/A   Mostly Cloudy
2:15 AM 75.2 °F - 73.4 °F 94% 29.95 in 5.0 mi West 4.6 mph - N/A   Scattered Clouds
2:36 AM 73.4 °F - 71.6 °F 94% 29.94 in 7.0 mi Calm Calm - N/A   Clear
2:56 AM 75.2 °F - 73.4 °F 94% 29.94 in 4.0 mi Calm Calm - N/A   Clear
3:15 AM 73.4 °F - 71.6 °F 94% 29.93 in 0.2 mi WNW 3.5 mph - N/A Fog Fog
3:37 AM 73.4 °F - 71.6 °F 94% 29.94 in 7.0 mi West 4.6 mph - N/A   Scattered Clouds
3:56 AM 73.4 °F - 71.6 °F 94% 29.93 in 10.0 mi West 4.6 mph - N/A   Clear
4:16 AM 73.4 °F - 71.6 °F 94% 29.93 in 10.0 mi West 4.6 mph - N/A   Clear
4:40 AM 73.4 °F - 71.6 °F 94% 29.93 in 7.0 mi Calm Calm - N/A   Clear
4:56 AM 73.4 °F - 71.6 °F 94% 29.93 in 5.0 mi Calm Calm - N/A   Clear
5:16 AM 73.4 °F - 71.6 °F 94% 29.93 in 4.0 mi NW 3.5 mph - N/A   Clear
5:36 AM 73.4 °F - 71.6 °F 94% 29.94 in 7.0 mi NW 3.5 mph - N/A   Clear
5:56 AM 73.4 °F - 71.6 °F 94% 29.94 in 10.0 mi NNW 4.6 mph - N/A   Clear
6:16 AM 73.4 °F - 71.6 °F 94% 29.95 in 10.0 mi North 4.6 mph - N/A   Clear
6:35 AM 75.2 °F - 71.6 °F 89% 29.95 in 10.0 mi North 3.5 mph - N/A   Clear
6:55 AM 73.4 °F - 71.6 °F 94% 29.96 in 4.0 mi Calm Calm - N/A   Clear
7:15 AM 73.4 °F - 71.6 °F 94% 29.96 in 5.0 mi North 3.5 mph - N/A   Clear
7:35 AM 75.2 °F - 73.4 °F 94% 29.97 in 10.0 mi North 4.6 mph - N/A   Clear
7:55 AM 77.0 °F - 71.6 °F 83% 29.97 in 10.0 mi NNE 3.5 mph - N/A   Clear
8:15 AM 78.8 °F - 71.6 °F 78% 29.98 in 10.0 mi North 3.5 mph - N/A   Clear
8:35 AM 78.8 °F - 71.6 °F 78% 29.98 in 10.0 mi North 3.5 mph - N/A   Clear
8:55 AM 80.6 °F 84.6 °F 71.6 °F 74% 29.98 in 10.0 mi Calm Calm - N/A   Clear
9:15 AM 80.6 °F 83.9 °F 69.8 °F 70% 29.97 in 10.0 mi NNE 4.6 mph - N/A   Clear
9:36 AM 82.4 °F 86.3 °F 69.8 °F 66% - 10.0 mi NE 5.8 mph - N/A   Clear
9:55 AM 82.4 °F 87.2 °F 71.6 °F 70% 29.97 in 10.0 mi ENE 5.8 mph - N/A   Clear
10:15 AM 82.4 °F 86.3 °F 69.8 °F 66% 29.98 in 10.0 mi NE 3.5 mph - N/A   Clear
10:35 AM 84.2 °F 88.4 °F 69.8 °F 62% 29.98 in 10.0 mi NNE 4.6 mph - N/A   Clear
10:55 AM 84.2 °F 88.4 °F 69.8 °F 62% 29.99 in 10.0 mi ENE 3.5 mph - N/A   Clear
11:15 AM 84.2 °F 88.4 °F 69.8 °F 62% 29.99 in 10.0 mi North 3.5 mph - N/A   Clear
11:35 AM 84.2 °F 88.4 °F 69.8 °F 62% 29.98 in 10.0 mi Calm Calm - N/A   Clear
11:55 AM 84.2 °F 88.4 °F 69.8 °F 62% 29.98 in 10.0 mi East 3.5 mph - N/A   Clear
12:15 PM 84.2 °F 88.4 °F 69.8 °F 62% 29.98 in 10.0 mi Calm Calm - N/A   Clear
12:36 PM 86.0 °F 90.4 °F 69.8 °F 58% 29.99 in 10.0 mi Calm Calm - N/A   Clear
12:56 PM 84.2 °F 89.6 °F 71.6 °F 66% 29.99 in 10.0 mi ESE 3.5 mph - N/A   Scattered Clouds
1:16 PM 82.4 °F 87.2 °F 71.6 °F 70% 29.99 in 10.0 mi SE 5.8 mph - N/A   Clear
1:36 PM 82.4 °F 87.2 °F 71.6 °F 70% 29.98 in 10.0 mi Calm Calm - N/A   Scattered Clouds
1:56 PM 80.6 °F 84.6 °F 71.6 °F 74% 29.99 in 10.0 mi East 3.5 mph - N/A   Mostly Cloudy
2:16 PM 80.6 °F 84.6 °F 71.6 °F 74% 29.99 in 10.0 mi ENE 4.6 mph - N/A   Mostly Cloudy
2:35 PM 78.8 °F - 71.6 °F 78% 30.00 in 7.0 mi Calm Calm - N/A Rain Light Rain
2:56 PM 78.8 °F - 73.4 °F 83% 30.00 in 5.0 mi Calm Calm - N/A Rain Light Rain
3:17 PM 77.0 °F - 71.6 °F 83% 29.99 in 7.0 mi NNE 11.5 mph - 0.01 in Rain Light Rain
3:35 PM 73.4 °F - 68.0 °F 83% 30.00 in 10.0 mi NNE 8.1 mph - 0.01 in Rain Light Rain
3:55 PM 71.6 °F - 64.4 °F 78% 29.99 in 10.0 mi NE 13.8 mph 20.7 mph 0.01 in   Mostly Cloudy
4:15 PM 73.4 °F - 64.4 °F 73% 29.99 in 10.0 mi NNE 4.6 mph - N/A   Scattered Clouds
4:35 PM 73.4 °F - 66.2 °F 78% 29.99 in 10.0 mi NE 3.5 mph - N/A   Mostly Cloudy
4:55 PM 73.4 °F - 68.0 °F 83% 29.99 in 10.0 mi ENE 4.6 mph - N/A   Mostly Cloudy
5:15 PM 73.4 °F - 68.0 °F 83% 29.99 in 10.0 mi ENE 6.9 mph - N/A   Mostly Cloudy
5:35 PM 73.4 °F - 68.0 °F 83% 29.99 in 10.0 mi East 4.6 mph - N/A   Mostly Cloudy
5:55 PM 73.4 °F - 66.2 °F 78% 29.99 in 10.0 mi ENE 5.8 mph - N/A   Mostly Cloudy
6:15 PM 75.2 °F - 66.2 °F 73% 30.00 in 10.0 mi ENE 4.6 mph - N/A   Scattered Clouds
6:36 PM 75.2 °F - 66.2 °F 73% 30.00 in 10.0 mi ENE 5.8 mph - N/A   Scattered Clouds
6:57 PM 75.2 °F - 66.2 °F 73% 30.00 in 10.0 mi ENE 5.8 mph - N/A   Mostly Cloudy
7:15 PM 73.4 °F - 68.0 °F 83% 30.01 in 10.0 mi Calm Calm - N/A   Mostly Cloudy
7:36 PM 73.4 °F - 68.0 °F 83% 30.01 in 10.0 mi ENE 3.5 mph - N/A   Mostly Cloudy
7:55 PM 73.4 °F - 68.0 °F 83% 30.02 in 10.0 mi NE 3.5 mph - N/A   Mostly Cloudy
8:15 PM 73.4 °F - 69.8 °F 88% 30.02 in 10.0 mi NE 4.6 mph - N/A   Mostly Cloudy
8:36 PM 73.4 °F - 69.8 °F 88% 30.04 in 10.0 mi Calm Calm - N/A   Overcast
8:56 PM 73.4 °F - 69.8 °F 88% 30.05 in 7.0 mi Calm Calm - N/A   Overcast
9:15 PM 73.4 °F - 69.8 °F 88% 30.06 in 7.0 mi Calm Calm - N/A   Overcast
9:36 PM 73.4 °F - 69.8 °F 88% 30.07 in 7.0 mi Calm Calm - N/A   Overcast
9:56 PM 73.4 °F - 69.8 °F 88% 30.07 in 7.0 mi Calm Calm - N/A   Overcast
10:16 PM 71.6 °F - 69.8 °F 94% 30.08 in 7.0 mi North 5.8 mph - 0.01 in Rain Rain
10:35 PM 73.4 °F - 68.0 °F 83% 30.08 in 7.0 mi North 11.5 mph - 0.03 in Rain Heavy Rain
10:56 PM 71.6 °F - 66.2 °F 83% 30.09 in 10.0 mi NNE 3.5 mph - N/A Rain Light Rain
11:17 PM 71.6 °F - 66.2 °F 83% 30.09 in 7.0 mi Calm Calm - N/A Rain Light Rain
11:36 PM 69.8 °F - 66.2 °F 88% 30.09 in 10.0 mi Calm Calm - 0.01 in Rain Light Rain
11:56 PM 69.8 °F - 64.4 °F 83% 30.09 in 10.0 mi ENE 4.6 mph - N/A   Overcast